User: anonymous   Login
Location: Dittelbrunn
(50.0738°N, 10.2196°E)
Time: 00:32:07
(UTC+00:00)
Language:

Terra - Orbit

View from above orbital plane
View from above orbital plane
View from above satellite
View from above satellite

Ground track
Ground track

The orbit data is extracted from the following two-line orbital elements,

1 25994U 99068A   20331.80691441  .00000090  00000-0  29977-4 0  9990
2 25994  98.1995  43.7111 0001151  91.3769  51.1804 14.57118639113955
Epoch (UTC): 26 November 2020 19:21:57
Eccentricity: 0.0001151
inclination: 98.1995°
perigee height: 701 km
apogee height: 703 km
right ascension of ascending node: 43.7111°
argument of perigee: 91.3769°
revolutions per day: 14.57118639
mean anomaly at epoch: 51.1804°
orbit number at epoch: 11395

The dashed part of the orbit path shows where the satellite is in the earth's shadow,  

DLR